User: anonymous   Login
Location: Unspecified
(0.0000°N, 0.0000°E)
Time: 09:19:29
(UTC+00:00)
Language:

MOS 1-B - Orbit

View from above orbital plane
View from above orbital plane
View from above satellite
View from above satellite

Ground track
Ground track

The orbit data is extracted from the following two-line orbital elements,

1 20478U 90013A   19047.92642719 +.00000007 +00000-0 +39656-4 0  9995
2 20478 099.3780 029.3031 0004649 242.9648 117.1039 13.95469619398572
Epoch (UTC): 16 February 2019 22:14:03
Eccentricity: 0.0004649
inclination: 99.3780°
perigee height: 906 km
apogee height: 913 km
right ascension of ascending node: 29.3031°
argument of perigee: 242.9648°
revolutions per day: 13.95469619
mean anomaly at epoch: 117.1039°
orbit number at epoch: 39857

The dashed part of the orbit path shows where the satellite is in the earth's shadow,  

DLR